Regional Weather Roundup
Issued by NWS

Home | Current Version | Previous Version | Text Only | Print | Product List | Glossary On
Versions: 1 2 3 4 5 6 7 8 9 10 11 12 13 14 15 16 17 18 19 20 21 22 23 24 25 26 27 28 29 30 31 32 33 34 35 36 37 38 39 40 41 42 43 44 45 46 47 48 49 50
000
ASUS45 KBOI 210810
RWRID
WEATHER ROUNDUP FOR IDAHO
NATIONAL WEATHER SERVICE BOISE ID
200 AM MDT SUN SEP 21 2014

NOTE: "FAIR" INDICATES FEW OR NO CLOUDS BELOW 12000 FEET
WITH NO SIGNIFICANT WEATHER AND/OR OBSTRUCTIONS TO VISIBILITY

IDZ012-014-210900-
SOUTHWEST IDAHO


CITY           SKY/WX    TMP DP  RH WIND       PRES   REMARKS
BOISE          PTCLDY    66  43  43 S5        30.02R
CALDWELL       PTCLDY    55  43  62 E3        30.02S
MOUNTAIN HOME  PTCLDY    59  43  55 W1        30.03R
$$

IDZ016-017-210900-
SOUTHCENTRAL IDAHO


CITY           SKY/WX    TMP DP  RH WIND       PRES   REMARKS
BURLEY         MOCLDY    52  46  80 CALM      30.10R
JEROME         MOCLDY    61  39  44 E8        30.10R
TWIN FALLS     MOCLDY    57  39  51 S8        30.10R
$$

IDZ019>023-210900-
SOUTHEAST IDAHO


CITY           SKY/WX    TMP DP  RH WIND       PRES   REMARKS
IDAHO FALLS    PTCLDY    53  45  74 N8        30.17S
POCATELLO      CLEAR     51  46  83 CALM      30.14R
REXBURG        CLEAR     51  41  68 NE7       30.18F
$$

IDZ006-010-011-018-031-032-210900-
CENTRAL IDAHO MOUNTAINS


CITY           SKY/WX    TMP DP  RH WIND       PRES   REMARKS
MCCALL         CLEAR     50  40  68 CALM      30.15S
HAILEY         PTCLDY    55  41  58 NW10      30.22S
STANLEY          N/A     43  34  70 CALM      30.29R
SALMON         PTCLDY    48  41  76 CALM      30.17R
CHALLIS        CLEAR     59  37  44 S7        30.21R
$$

IDZ002-004-006-007-026-210900-
NORTHERN IDAHO


CITY           SKY/WX    TMP DP  RH WIND       PRES   REMARKS
LEWISTON       CLEAR     68  38  33 CALM      29.98S
LOWELL           N/A     55  52  89 N3        30.06S
COEUR D`ALENE  CLEAR     63  43  48 N15       30.06S
MULLAN PASS    CLEAR     56  34  43 SE9       30.26S
$$



USA.gov is the U.S. government's official web portal to all federal, state and local government web resources and services.